Time,TemperatureF,DewpointF,PressureIn,WindDirection,WindDirectionDegrees,WindSpeedMPH,WindSpeedGustMPH,Humidity,HourlyPrecipIn,Conditions,Clouds,dailyrainin,SoftwareType,DateUTC
2013-03-22 00:02:00,24.0,15.0,-100.00,NNE,20,7.0,7.0,68,0.00,,,-99.99,,2013-03-22 05:02:00,
2013-03-22 00:12:00,24.0,15.0,-100.00,NNE,20,7.0,9.0,69,0.00,,,-99.99,,2013-03-22 05:12:00,
2013-03-22 00:22:00,24.0,15.0,-100.00,NNE,25,7.0,9.0,69,0.00,,,-99.99,,2013-03-22 05:22:00,
2013-03-22 00:32:00,23.0,15.0,-100.00,NNE,25,7.0,9.0,70,0.00,,,-99.99,,2013-03-22 05:32:00,
2013-03-22 00:42:00,23.0,15.0,-100.00,NNE,25,7.0,9.0,70,0.00,,,-99.99,,2013-03-22 05:42:00,
2013-03-22 00:52:00,23.0,15.0,-100.00,NNE,25,7.0,9.0,71,0.00,,,-99.99,,2013-03-22 05:52:00,
2013-03-22 01:02:00,23.0,15.0,-100.00,NNE,25,7.0,9.0,71,0.00,,,-99.99,,2013-03-22 06:02:00,
2013-03-22 01:12:00,23.0,15.0,-100.00,NNE,25,6.0,9.0,72,0.00,,,-99.99,,2013-03-22 06:12:00,
2013-03-22 01:22:00,22.0,15.0,-100.00,NNE,30,5.0,7.0,72,0.00,,,-99.99,,2013-03-22 06:22:00,
2013-03-22 01:32:00,22.0,15.0,-100.00,NNE,25,6.0,7.0,73,0.00,,,-99.99,,2013-03-22 06:32:00,
2013-03-22 01:42:00,22.0,15.0,-100.00,NNE,25,6.0,7.0,73,0.00,,,-99.99,,2013-03-22 06:42:00,
2013-03-22 01:52:00,22.0,15.0,-100.00,NE,35,4.0,7.0,74,0.00,,,-99.99,,2013-03-22 06:52:00,
2013-03-22 02:02:00,22.0,15.0,-100.00,NE,35,4.0,7.0,74,0.00,,,-99.99,,2013-03-22 07:02:00,
2013-03-22 02:12:00,22.0,15.0,-100.00,NE,35,7.0,8.0,74,0.00,,,-99.99,,2013-03-22 07:12:00,
2013-03-22 02:22:00,22.0,15.0,-100.00,NE,45,6.0,9.0,74,0.00,,,-99.99,,2013-03-22 07:22:00,
2013-03-22 02:32:00,22.0,15.0,-100.00,NE,45,9.0,12.0,74,0.00,,,-99.99,,2013-03-22 07:32:00,
2013-03-22 02:42:00,22.0,15.0,-100.00,NE,45,9.0,12.0,74,0.00,,,-99.99,,2013-03-22 07:42:00,
2013-03-22 02:52:00,22.0,15.0,-100.00,NE,50,9.0,12.0,73,0.00,,,-99.99,,2013-03-22 07:52:00,
2013-03-22 03:03:00,22.0,15.0,-100.00,NE,50,9.0,12.0,73,0.00,,,-99.99,,2013-03-22 08:03:00,
2013-03-22 03:12:00,22.0,14.0,-100.00,NE,45,8.0,12.0,73,0.00,,,-99.99,,2013-03-22 08:12:00,
2013-03-22 03:22:00,21.0,14.0,-100.00,NE,45,9.0,11.0,72,0.00,,,-99.99,,2013-03-22 08:22:00,
2013-03-22 03:32:00,21.0,14.0,-100.00,NE,50,9.0,11.0,72,0.00,,,-99.99,,2013-03-22 08:32:00,
2013-03-22 03:42:00,21.0,14.0,-100.00,NE,50,9.0,11.0,72,0.00,,,-99.99,,2013-03-22 08:42:00,
2013-03-22 03:52:00,21.0,13.0,-100.00,NE,35,7.0,9.0,71,0.00,,,-99.99,,2013-03-22 08:52:00,
2013-03-22 04:02:00,21.0,13.0,-100.00,NE,35,7.0,9.0,71,0.00,,,-99.99,,2013-03-22 09:02:00,
2013-03-22 04:12:00,21.0,13.0,-100.00,NE,45,8.0,10.0,71,0.00,,,-99.99,,2013-03-22 09:12:00,
2013-03-22 04:22:00,21.0,13.0,-100.00,NE,45,6.0,9.0,71,0.00,,,-99.99,,2013-03-22 09:22:00,
2013-03-22 04:32:00,21.0,13.0,-100.00,NE,50,7.0,10.0,70,0.00,,,-99.99,,2013-03-22 09:32:00,
2013-03-22 04:42:00,21.0,13.0,-100.00,NE,50,7.0,10.0,70,0.00,,,-99.99,,2013-03-22 09:42:00,
2013-03-22 04:53:00,20.0,12.0,-100.00,NE,50,7.0,8.0,69,0.00,,,-99.99,,2013-03-22 09:53:00,
2013-03-22 05:03:00,20.0,12.0,-100.00,NE,50,7.0,8.0,69,0.00,,,-99.99,,2013-03-22 10:03:00,
2013-03-22 05:12:00,20.0,12.0,-100.00,NE,50,7.0,8.0,69,0.00,,,-99.99,,2013-03-22 10:12:00,
2013-03-22 05:22:00,20.0,12.0,-100.00,NE,35,6.0,8.0,69,0.00,,,-99.99,,2013-03-22 10:22:00,
2013-03-22 05:32:00,20.0,12.0,-100.00,NE,40,6.0,7.0,69,0.00,,,-99.99,,2013-03-22 10:32:00,
2013-03-22 05:42:00,20.0,12.0,-100.00,NE,40,6.0,7.0,69,0.00,,,-99.99,,2013-03-22 10:42:00,
2013-03-22 05:52:00,20.0,11.0,-100.00,NE,35,6.0,9.0,69,0.00,,,-99.99,,2013-03-22 10:52:00,
2013-03-22 06:03:00,20.0,11.0,-100.00,NE,35,6.0,9.0,69,0.00,,,-99.99,,2013-03-22 11:03:00,
2013-03-22 06:12:00,20.0,11.0,-100.00,NE,35,6.0,9.0,69,0.00,,,-99.99,,2013-03-22 11:12:00,
2013-03-22 06:22:00,19.0,11.0,-100.00,NNE,30,4.0,7.0,69,0.00,,,-99.99,,2013-03-22 11:22:00,
2013-03-22 06:32:00,19.0,11.0,-100.00,NE,35,6.0,6.0,71,0.00,,,-99.99,,2013-03-22 11:32:00,
2013-03-22 06:42:00,19.0,11.0,-100.00,NE,35,6.0,6.0,71,0.00,,,-99.99,,2013-03-22 11:42:00,
2013-03-22 06:52:00,19.0,11.0,-100.00,NE,45,4.0,6.0,71,0.00,,,-99.99,,2013-03-22 11:52:00,
2013-03-22 07:02:00,19.0,12.0,-100.00,NE,40,5.0,6.0,72,0.00,,,-99.99,,2013-03-22 12:02:00,
2013-03-22 07:12:00,19.0,12.0,-100.00,NE,45,6.0,7.0,72,0.00,,,-99.99,,2013-03-22 12:12:00,
2013-03-22 07:22:00,19.0,12.0,-100.00,NE,40,6.0,8.0,72,0.00,,,-99.99,,2013-03-22 12:22:00,
2013-03-22 07:32:00,19.0,12.0,-100.00,NE,50,6.0,7.0,72,0.00,,,-99.99,,2013-03-22 12:32:00,
2013-03-22 07:42:00,19.0,12.0,-100.00,NE,50,6.0,7.0,72,0.00,,,-99.99,,2013-03-22 12:42:00,
2013-03-22 07:52:00,20.0,12.0,-100.00,NE,50,5.0,6.0,72,0.00,,,-99.99,,2013-03-22 12:52:00,
2013-03-22 08:02:00,20.0,12.0,-100.00,NE,50,5.0,6.0,72,0.00,,,-99.99,,2013-03-22 13:02:00,
2013-03-22 08:12:00,20.0,12.0,-100.00,NE,45,7.0,7.0,71,0.00,,,-99.99,,2013-03-22 13:12:00,
2013-03-22 08:22:00,20.0,12.0,-100.00,NE,45,7.0,7.0,71,0.00,,,-99.99,,2013-03-22 13:22:00,
2013-03-22 08:32:00,21.0,13.0,-100.00,NE,55,5.0,7.0,69,0.00,,,-99.99,,2013-03-22 13:32:00,
2013-03-22 08:42:00,21.0,13.0,-100.00,NE,55,5.0,7.0,69,0.00,,,-99.99,,2013-03-22 13:42:00,
2013-03-22 08:52:00,23.0,13.0,-100.00,ENE,70,4.0,6.0,65,0.00,,,-99.99,,2013-03-22 13:52:00,
2013-03-22 09:02:00,23.0,13.0,-100.00,ENE,70,4.0,6.0,65,0.00,,,-99.99,,2013-03-22 14:02:00,
2013-03-22 09:12:00,23.0,13.0,-100.00,NE,55,4.0,7.0,64,0.00,,,-99.99,,2013-03-22 14:12:00,
2013-03-22 09:22:00,24.0,13.0,-100.00,NE,50,4.0,6.0,63,0.00,,,-99.99,,2013-03-22 14:22:00,
2013-03-22 09:32:00,25.0,14.0,-100.00,ENE,75,4.0,6.0,61,0.00,,,-99.99,,2013-03-22 14:32:00,
2013-03-22 09:42:00,25.0,14.0,-100.00,ENE,75,4.0,6.0,61,0.00,,,-99.99,,2013-03-22 14:42:00,
2013-03-22 09:52:00,26.0,13.0,-100.00,ENE,70,4.0,7.0,58,0.00,,,-99.99,,2013-03-22 14:52:00,
2013-03-22 10:02:00,26.0,13.0,-100.00,ENE,70,4.0,7.0,58,0.00,,,-99.99,,2013-03-22 15:02:00,
2013-03-22 10:12:00,27.0,14.0,-100.00,East,90,4.0,7.0,57,0.00,,,-99.99,,2013-03-22 15:12:00,
2013-03-22 10:22:00,27.0,14.0,-100.00,ESE,105,4.0,7.0,57,0.00,,,-99.99,,2013-03-22 15:22:00,
2013-03-22 10:32:00,28.0,14.0,-100.00,ESE,105,5.0,7.0,55,0.00,,,-99.99,,2013-03-22 15:32:00,
2013-03-22 10:42:00,28.0,14.0,-100.00,ESE,105,5.0,7.0,55,0.00,,,-99.99,,2013-03-22 15:42:00,
2013-03-22 10:52:00,28.0,14.0,-100.00,ENE,75,6.0,8.0,54,0.00,,,-99.99,,2013-03-22 15:52:00,
2013-03-22 11:02:00,28.0,14.0,-100.00,ENE,75,6.0,8.0,54,0.00,,,-99.99,,2013-03-22 16:02:00,
2013-03-22 11:13:00,28.0,14.0,-100.00,ENE,75,6.0,8.0,54,0.00,,,-99.99,,2013-03-22 16:13:00,
2013-03-22 11:22:00,28.0,14.0,-100.00,ENE,75,6.0,8.0,54,0.00,,,-99.99,,2013-03-22 16:22:00,
2013-03-22 11:32:00,29.0,14.0,-100.00,East,85,6.0,9.0,53,0.00,,,-99.99,,2013-03-22 16:32:00,
2013-03-22 11:42:00,29.0,14.0,-100.00,East,85,6.0,9.0,53,0.00,,,-99.99,,2013-03-22 16:42:00,
2013-03-22 11:52:00,31.0,16.0,-100.00,SSE,155,4.0,9.0,51,0.00,,,-99.99,,2013-03-22 16:52:00,
2013-03-22 12:03:00,31.0,16.0,-100.00,SSE,155,4.0,9.0,51,0.00,,,-99.99,,2013-03-22 17:03:00,
2013-03-22 12:12:00,32.0,16.0,-100.00,ESE,115,1.0,6.0,50,0.00,,,-99.99,,2013-03-22 17:12:00,
2013-03-22 12:23:00,32.0,15.0,-100.00,SE,125,3.0,6.0,49,0.00,,,-99.99,,2013-03-22 17:23:00,
2013-03-22 12:32:00,33.0,16.0,-100.00,NE,40,4.0,7.0,49,0.00,,,-99.99,,2013-03-22 17:32:00,
2013-03-22 12:42:00,33.0,16.0,-100.00,NE,40,4.0,7.0,49,0.00,,,-99.99,,2013-03-22 17:42:00,
2013-03-22 12:52:00,34.0,16.0,-100.00,SSE,150,1.0,4.0,47,0.00,,,-99.99,,2013-03-22 17:52:00,
2013-03-22 13:02:00,34.0,16.0,-100.00,SSE,150,1.0,4.0,47,0.00,,,-99.99,,2013-03-22 18:02:00,
2013-03-22 13:12:00,34.0,16.0,-100.00,SE,125,1.0,7.0,47,0.00,,,-99.99,,2013-03-22 18:12:00,
2013-03-22 13:22:00,34.0,16.0,-100.00,NE,50,2.0,7.0,46,0.00,,,-99.99,,2013-03-22 18:22:00,
2013-03-22 13:33:00,35.0,16.0,-100.00,North,0,2.0,6.0,45,0.00,,,-99.99,,2013-03-22 18:33:00,
2013-03-22 13:42:00,35.0,16.0,-100.00,North,0,2.0,6.0,45,0.00,,,-99.99,,2013-03-22 18:42:00,
2013-03-22 13:52:00,34.0,16.0,-100.00,NE,55,5.0,9.0,45,0.00,,,-99.99,,2013-03-22 18:52:00,
2013-03-22 14:02:00,34.0,16.0,-100.00,NE,55,5.0,9.0,45,0.00,,,-99.99,,2013-03-22 19:02:00,
2013-03-22 14:12:00,35.0,17.0,-100.00,North,10,2.0,7.0,45,0.00,,,-99.99,,2013-03-22 19:12:00,
2013-03-22 14:22:00,35.0,16.0,-100.00,NE,45,4.0,7.0,44,0.00,,,-99.99,,2013-03-22 19:22:00,
2013-03-22 14:32:00,35.0,16.0,-100.00,North,5,3.0,7.0,45,0.00,,,-99.99,,2013-03-22 19:32:00,
2013-03-22 14:42:00,35.0,16.0,-100.00,North,5,3.0,7.0,45,0.00,,,-99.99,,2013-03-22 19:42:00,
2013-03-22 14:52:00,36.0,16.0,-100.00,ESE,120,4.0,9.0,44,0.00,,,-99.99,,2013-03-22 19:52:00,
2013-03-22 15:02:00,36.0,16.0,-100.00,ESE,120,4.0,9.0,44,0.00,,,-99.99,,2013-03-22 20:02:00,
2013-03-22 15:12:00,36.0,17.0,-100.00,East,80,3.0,7.0,44,0.00,,,-99.99,,2013-03-22 20:12:00,
2013-03-22 15:22:00,36.0,16.0,-100.00,NE,55,4.0,7.0,44,0.00,,,-99.99,,2013-03-22 20:22:00,
2013-03-22 15:32:00,36.0,16.0,-100.00,ENE,65,6.0,9.0,43,0.00,,,-99.99,,2013-03-22 20:32:00,
2013-03-22 15:42:00,36.0,16.0,-100.00,ENE,65,6.0,9.0,43,0.00,,,-99.99,,2013-03-22 20:42:00,
2013-03-22 15:52:00,36.0,16.0,-100.00,NE,55,4.0,5.0,43,0.00,,,-99.99,,2013-03-22 20:52:00,
2013-03-22 16:03:00,36.0,16.0,-100.00,NE,55,4.0,5.0,43,0.00,,,-99.99,,2013-03-22 21:03:00,
2013-03-22 16:12:00,36.0,15.0,-100.00,NNE,30,2.0,6.0,43,0.00,,,-99.99,,2013-03-22 21:12:00,
2013-03-22 16:22:00,36.0,16.0,-100.00,West,260,1.0,6.0,42,0.00,,,-99.99,,2013-03-22 21:22:00,
2013-03-22 16:32:00,36.0,16.0,-100.00,NNW,345,3.0,6.0,42,0.00,,,-99.99,,2013-03-22 21:32:00,
2013-03-22 16:42:00,36.0,16.0,-100.00,NNW,345,3.0,6.0,42,0.00,,,-99.99,,2013-03-22 21:42:00,
2013-03-22 16:52:00,37.0,16.0,-100.00,ENE,65,4.0,7.0,42,0.00,,,-99.99,,2013-03-22 21:52:00,
2013-03-22 17:03:00,37.0,16.0,-100.00,ENE,65,4.0,7.0,42,0.00,,,-99.99,,2013-03-22 22:03:00,
2013-03-22 17:12:00,36.0,16.0,-100.00,NNE,15,5.0,7.0,42,0.00,,,-99.99,,2013-03-22 22:12:00,
2013-03-22 17:23:00,36.0,16.0,-100.00,NNE,25,4.0,5.0,42,0.00,,,-99.99,,2013-03-22 22:23:00,
2013-03-22 17:32:00,36.0,17.0,-100.00,North,0,3.0,9.0,44,0.00,,,-99.99,,2013-03-22 22:32:00,
2013-03-22 17:42:00,36.0,17.0,-100.00,North,0,3.0,9.0,44,0.00,,,-99.99,,2013-03-22 22:42:00,
2013-03-22 17:52:00,35.0,17.0,-100.00,NNE,15,9.0,10.0,47,0.00,,,-99.99,,2013-03-22 22:52:00,
2013-03-22 18:02:00,35.0,17.0,-100.00,NNE,15,9.0,10.0,47,0.00,,,-99.99,,2013-03-22 23:02:00,
2013-03-22 18:12:00,35.0,17.0,-100.00,NNE,15,7.0,9.0,47,0.00,,,-99.99,,2013-03-22 23:12:00,
2013-03-22 18:22:00,34.0,18.0,-100.00,NNE,25,9.0,12.0,50,0.00,,,-99.99,,2013-03-22 23:22:00,
2013-03-22 18:32:00,33.0,18.0,-100.00,NNE,30,7.0,13.0,53,0.00,,,-99.99,,2013-03-22 23:32:00,
2013-03-22 18:42:00,33.0,18.0,-100.00,NNE,30,7.0,13.0,53,0.00,,,-99.99,,2013-03-22 23:42:00,
2013-03-22 18:52:00,33.0,18.0,-100.00,NE,35,7.0,9.0,54,0.00,,,-99.99,,2013-03-22 23:52:00,
2013-03-22 19:02:00,33.0,18.0,-100.00,NE,35,7.0,9.0,54,0.00,,,-99.99,,2013-03-23 00:02:00,
2013-03-22 19:12:00,33.0,18.0,-100.00,NE,35,7.0,8.0,54,0.00,,,-99.99,,2013-03-23 00:12:00,
2013-03-22 19:23:00,33.0,19.0,-100.00,NE,35,7.0,8.0,55,0.00,,,-99.99,,2013-03-23 00:23:00,
2013-03-22 19:32:00,33.0,19.0,-100.00,NE,35,6.0,8.0,57,0.00,,,-99.99,,2013-03-23 00:32:00,
2013-03-22 19:42:00,33.0,19.0,-100.00,NE,35,6.0,8.0,57,0.00,,,-99.99,,2013-03-23 00:42:00,
2013-03-22 19:52:00,33.0,20.0,-100.00,NE,35,6.0,7.0,60,0.00,,,-99.99,,2013-03-23 00:52:00,
2013-03-22 20:03:00,33.0,20.0,-100.00,NE,35,6.0,7.0,60,0.00,,,-99.99,,2013-03-23 01:03:00,
2013-03-22 20:12:00,32.0,20.0,-100.00,NE,35,6.0,7.0,60,0.00,,,-99.99,,2013-03-23 01:12:00,
2013-03-22 20:22:00,32.0,20.0,-100.00,NNE,30,6.0,7.0,61,0.00,,,-99.99,,2013-03-23 01:22:00,
2013-03-22 20:32:00,32.0,20.0,-100.00,NNE,30,6.0,9.0,61,0.00,,,-99.99,,2013-03-23 01:32:00,
2013-03-22 20:42:00,32.0,20.0,-100.00,NNE,30,6.0,9.0,61,0.00,,,-99.99,,2013-03-23 01:42:00,
2013-03-22 20:52:00,32.0,21.0,-100.00,NE,40,5.0,7.0,62,0.00,,,-99.99,,2013-03-23 01:52:00,
2013-03-22 21:02:00,32.0,21.0,-100.00,NE,40,5.0,7.0,62,0.00,,,-99.99,,2013-03-23 02:02:00,
2013-03-22 21:12:00,32.0,21.0,-100.00,NE,55,8.0,9.0,63,0.00,,,-99.99,,2013-03-23 02:12:00,
2013-03-22 21:22:00,31.0,20.0,-100.00,NE,45,8.0,11.0,63,0.00,,,-99.99,,2013-03-23 02:22:00,
2013-03-22 21:32:00,31.0,20.0,-100.00,NE,35,7.0,9.0,64,0.00,,,-99.99,,2013-03-23 02:32:00,
2013-03-22 21:42:00,31.0,20.0,-100.00,NE,35,7.0,9.0,64,0.00,,,-99.99,,2013-03-23 02:42:00,
2013-03-22 21:52:00,31.0,20.0,-100.00,NNE,30,7.0,9.0,63,0.00,,,-99.99,,2013-03-23 02:52:00,
2013-03-22 22:02:00,31.0,20.0,-100.00,NNE,30,7.0,9.0,63,0.00,,,-99.99,,2013-03-23 03:02:00,
2013-03-22 22:12:00,31.0,20.0,-100.00,NNE,30,7.0,9.0,63,0.00,,,-99.99,,2013-03-23 03:12:00,
2013-03-22 22:22:00,31.0,20.0,-100.00,NNE,25,6.0,9.0,63,0.00,,,-99.99,,2013-03-23 03:22:00,
2013-03-22 22:33:00,31.0,20.0,-100.00,NNE,15,6.0,7.0,63,0.00,,,-99.99,,2013-03-23 03:33:00,
2013-03-22 22:43:00,31.0,20.0,-100.00,NNE,15,6.0,7.0,63,0.00,,,-99.99,,2013-03-23 03:43:00,
2013-03-22 22:53:00,31.0,20.0,-100.00,North,10,7.0,9.0,63,0.00,,,-99.99,,2013-03-23 03:53:00,
2013-03-22 23:02:00,31.0,20.0,-100.00,North,10,7.0,9.0,63,0.00,,,-99.99,,2013-03-23 04:02:00,
2013-03-22 23:12:00,31.0,20.0,-100.00,North,10,7.0,10.0,63,0.00,,,-99.99,,2013-03-23 04:12:00,
2013-03-22 23:23:00,31.0,20.0,-100.00,NNE,20,7.0,9.0,64,0.00,,,-99.99,,2013-03-23 04:23:00,
2013-03-22 23:32:00,30.0,21.0,-100.00,NNE,15,7.0,9.0,67,0.00,,,-99.99,,2013-03-23 04:32:00,
2013-03-22 23:43:00,30.0,21.0,-100.00,NNE,15,7.0,9.0,67,0.00,,,-99.99,,2013-03-23 04:43:00,
2013-03-22 23:53:00,30.0,21.0,-100.00,NNE,30,7.0,10.0,68,0.00,,,-99.99,,2013-03-23 04:53:00,